{"data":{"norad_id":59548,"intl_designator":"2024-074Q","name":"STARLINK-31675","alt_names":[],"object_type":"PAYLOAD","status":"ACTIVE","operator":null,"country":"US","launch_date":"2024-04-18","launch_site_code":"AFETR","launch_vehicle":null,"mission":null,"orbit_class":"UNKNOWN","rcs_meters":null,"size_class":null,"mass_kg":null,"dimensions":null,"purposes":["comms"],"wikipedia_slug":null,"has_3d_model":false,"image_url":null,"decayed_at":null,"tle_current":{"epoch":"2026-05-25T01:04:09.075936Z","epoch_age_seconds":67858,"freshness":"FRESH","line1":"1 59548U 24074Q   26145.04454949  .00005497  00000+0  20916-3 0  9990","line2":"2 59548  42.9990 272.1544 0000862 299.5591  60.5174 15.27573086117698","mean_motion":15.27573086,"eccentricity":8.62e-5,"inclination_deg":42.999,"raan_deg":272.1544,"arg_perigee_deg":299.5591,"mean_anomaly_deg":60.5174,"bstar":0.00020916,"rev_number":11769,"period_min":94.267175377558,"perigee_km":482.47836309495,"apogee_km":483.66123514712,"semimajor_km":6861.206799121,"source":"CELESTRAK","updated_at":"2026-05-25T13:38:18.981974Z"}}}